User: anonymous   Login
Location: Unspecified
(0.0000°N, 0.0000°E)
Time: 18:25:36
(UTC+00:00)
Language:

AO-73 - Orbit

View from above orbital plane
View from above orbital plane
View from above satellite
View from above satellite

Ground track
Ground track

The orbit data is extracted from the following two-line orbital elements,

1 39444U 13066AE  17080.87181996 +.00000293 +00000-0 +42946-4 0  9998
2 39444 097.6426 128.2422 0058454 191.1557 168.8365 14.81360390178093
Epoch (UTC): 21 March 2017 20:55:25
Eccentricity: 0.0058454
inclination: 97.6426°
perigee height: 584 km
apogee height: 666 km
right ascension of ascending node: 128.2422°
argument of perigee: 191.1557°
revolutions per day: 14.81360390
mean anomaly at epoch: 168.8365°
orbit number at epoch: 17809

The dashed part of the orbit path shows where the satellite is in the earth's shadow,  

DLR